If you wish to contribute or participate in the discussions about articles you are invited to join SKYbrary as a registered user

 Actions

Grantley Adams International Airport

From SKYbrary Wiki

TBPB
Airport
ICAO: TBPB – IATA: BGI
Summary
Name Grantley Adams International Airport
Region South America and Caribbean
Territory Barbados BB.gif
Location Seawell, Barbados
Serving Bridgetown
Elevation 51.816 m
170 ft51.816 m
Coordinates 13° 4' 35.71" N, 59° 29' 16.05" W
Runways
Designator Length Width Surface ROPS
9/27 3353 m11,000.656 ft
46 m150.919 ft
ASP yes/yes


METAR
Observation TBPB 261100Z 09009KT 9999 VCSH SCT022 SCT038 26/21 Q1014 NOSIG
Station Grantley Adams
Date/Time 26 February 2020 11:00:00
Wind direction 90°
Wind speed 09 kts
Lowest cloud amount scattered clouds
Temperature 26°C
Dew point 21°C
Humidity 74%
QNH 1014 hPa
Weather condition in vicinity: showers

Grantley Adams International Airport is the international airport of Barbados, located in Seawell, Christ Church.

Climatology

Tropical savannah climate (Köppen climate classification Aw)

Maps

Terrain

Loading map...

Airport Layout

Loading map...


Accidents & Serious Incidents at or in vicinity of TBPB

None on SKYbrary